[[{"header":{"parameterUnit":"m.s-1","parameterCategory":2,"la1":30.2991,"la2":30.254,"lo1":-89.0895,"lo2":-89.0444,"dy":0.0017,"dx":0.0017,"nx":28,"ny":28,"refTime":"2025-07-23T21:00:00:Z","depth":"0","parameterNumber":2,"parameterNumberName":"U-component_of_CURRENTS"},"data":[0,0,0,0,0,0,0,0,0,0,0,0,0,0,0,0,0,0,0,0,0,0,0,0,0,0,0,0,0,0,0,0,0,0,0,0,0,0,0,0,0,0,0,0,0,0,0,0,0,0,0,0,0,0,0,0,0,0,0.1077,0.1077,0,0.1091,0.1091,0.1091,0.1098,0.1098,0.1098,0.1099,0.1106,0.1106,0.1106,0,0,0,0,0,0,0,0,0,0,0,0,0,0.1038,0.1038,0.1077,0.1077,0.1078,0.1091,0.1091,0.1091,0.1098,0.1098,0.1098,0.1099,0.1106,0.1106,0.1106,0,0,0,0,0,0,0,0,0,0,0,0,0,0.1052,0.1039,0.1077,0.1084,0.1085,0.1091,0.1091,0.1091,0.1098,0.1098,0.1098,0.1099,0.1106,0.1106,0.1106,0.1101,0,0,0.1106,0.1106,0,0,0,0,0,0,0,0,0.1051,0.1053,0.1083,0.1084,0.1085,0.1095,0.108,0.1095,0.1098,0.1091,0.1099,0.1099,0.1102,0.1103,0.1102,0.1101,0.1101,0.1106,0.1106,0.1106,0.1106,0,0,0,0,0,0,0,0.105,0.1052,0.1081,0.1083,0.1084,0.108,0.1083,0.1083,0.1094,0.1092,0.1093,0.1097,0.1103,0.1102,0.1102,0.1102,0.1106,0.1106,0.1106,0.1106,0.1109,0.1109,0,0,0,0,0,0,0.1053,0.1052,0.108,0.1081,0.107,0.1081,0.1084,0.109,0.1094,0.1095,0.1097,0.1097,0.1102,0.1102,0.1103,0.1107,0.1106,0.1106,0.1106,0.1109,0.1109,0.1109,0,0,0,0,0,0,0.1052,0.1055,0.108,0.1068,0.1071,0.1082,0.1089,0.109,0.1093,0.1098,0.1099,0.11,0.1102,0.1103,0.1105,0.1107,0.1106,0.1106,0.1109,0.1109,0.1109,0.111,0,0,0,0,0,0,0.1051,0.1055,0.106,0.1068,0.1072,0.1085,0.1089,0.109,0.1096,0.1097,0.1101,0.1101,0.1102,0.1105,0.1105,0.1107,0.1106,0.1109,0.1109,0.1109,0.111,0.111,0.111,0,0,0,0,0,0.1049,0.1055,0.106,0.1064,0.1079,0.1085,0.1086,0.1093,0.1096,0.1097,0.11,0.1102,0.1105,0.1104,0.1105,0.1107,0.1109,0.1109,0.1109,0.111,0.111,0.111,0,0,0,0,0,0,0.1041,0.1057,0.1062,0.1073,0.1079,0.1087,0.109,0.1094,0.1096,0.1098,0.1101,0.1101,0.1103,0.1105,0.1104,0.1109,0.1108,0.1108,0.1108,0.1109,0.1109,0.1129,0.1106,0,0,0,0,0,0.1042,0.105,0.1062,0.107,0.1074,0.1082,0.1086,0.109,0.1095,0.1096,0.1098,0.1101,0.1103,0.1106,0.1106,0.1108,0.1169,0.111,0.1111,0.1111,0.1127,0.1196,0.1205,0.1109,0.1109,0.1109,0,0,0.104,0.1051,0.1055,0.1069,0.1075,0.1079,0.1084,0.1091,0.1094,0.1096,0.1099,0.11,0.1103,0.1105,0.1107,0.1108,0.1181,0.1111,0.1111,0.1128,0.1198,0.1207,0.1216,0.1109,0.1109,0.1109,0,0,0.1039,0.1051,0.1056,0.1061,0.1073,0.1078,0.1081,0.1088,0.1092,0.1093,0.1097,0.1104,0.11,0.111,0.1113,0.1116,0.1177,0.1111,0.1131,0.1197,0.1206,0.1215,0.1356,0.1377,0.1113,0.1113,0.1113,0,0.1036,0.1049,0.1057,0.1062,0.1071,0.1078,0.1085,0.1086,0.1092,0.1108,0.1093,0.1117,0.1106,0.1134,0.1126,0.1118,0.1193,0.1128,0.12,0.1209,0.1218,0.136,0.1384,0.1113,0.1113,0.1113,0.1113,0,0.1038,0.1048,0.1051,0.1062,0.1069,0.1077,0.1084,0.1092,0.1096,0.1108,0.1134,0.1127,0.1157,0.1138,0.1127,0.1181,0.1231,0.1192,0.1204,0.1228,0.1377,0.1401,0.1113,0.1113,0.1113,0.1113,0,0,0.1032,0.105,0.1051,0.1064,0.1074,0.1085,0.1093,0.1118,0.1155,0.1144,0.1204,0.1173,0.1196,0.1202,0.1198,0.1232,0.1355,0.1237,0.124,0.1387,0.1575,0.1628,0.1661,0.1329,0.1332,0.1334,0.1674,0,0.1033,0.1048,0.1056,0.1074,0.1086,0.1101,0.1119,0.1143,0.1169,0.1227,0.1232,0.1282,0.1215,0.1251,0.1269,0.1341,0.1411,0.1271,0.1521,0.153,0.158,0.1686,0.1643,0.1941,0.1698,0.1702,0.1705,0,0.1034,0.1049,0.1065,0.1105,0.1114,0.1124,0.1185,0.1205,0.1276,0.1307,0.1354,0.1386,0.1457,0.1385,0.1536,0.1457,0.1521,0.1561,0.1575,0.1639,0.1626,0.1866,0.1995,0.1963,0.1742,0.1739,0.1737,0,0.1037,0.106,0.1079,0.1087,0.1124,0.1144,0.1172,0.1231,0.1278,0.1387,0.146,0.1532,0.1615,0.1673,0.1746,0.1668,0.1933,0.1842,0.1965,0.1973,0.1994,0.1998,0.2125,0.1959,0.1958,0.1957,0.1956,0,0.1041,0.1058,0.1084,0.1094,0.1132,0.1162,0.1224,0.1266,0.1366,0.1455,0.1514,0.1621,0.1683,0.1824,0.1852,0.2027,0.2038,0.2024,0.2065,0.1998,0.1998,0.2012,0.1964,0.197,0.1967,0.1964,0.1962,0,0.1036,0.1053,0.1075,0.1115,0.1129,0.1158,0.1237,0.1299,0.1399,0.1531,0.1585,0.1749,0.1953,0.2044,0.2206,0.2205,0.2297,0.238,0.2339,0.2366,0.2405,0.2357,0.2428,0.2352,0.26,0.2603,0.2606,0,0.1033,0.1044,0.1077,0.1092,0.1107,0.1156,0.1201,0.1295,0.1374,0.1603,0.1683,0.1933,0.2092,0.24,0.2475,0.2643,0.2478,0.268,0.2481,0.2459,0.2436,0.2248,0.2161,0.255,0.2552,0.2554,0.2555,0,0.1025,0.1034,0.1051,0.1083,0.1119,0.1165,0.1243,0.1308,0.1456,0.1592,0.1812,0.1972,0.2298,0.2476,0.2704,0.2753,0.2563,0.2721,0.2691,0.2424,0.2236,0.2165,0.2325,0.2571,0.2569,0.2568,0.2567,0.2567,0.101,0.1019,0.1043,0.1074,0.1113,0.117,0.1214,0.1326,0.1458,0.1668,0.1841,0.2076,0.239,0.2707,0.2749,0.2837,0.2709,0.2774,0.2742,0.2571,0.2403,0.2639,0.2903,0.2903,0.2903,0.2904,0.2904,0,0.0991,0.1011,0.1039,0.1077,0.1116,0.1145,0.1243,0.1303,0.1444,0.1662,0.1851,0.221,0.2463,0.267,0.2891,0.2857,0.2636,0.2812,0.2519,0.2444,0.2695,0.2594,0.2808,0.2808,0.2808,0.2808,0.2808,0.2808,0.0983,0.1003,0.1025,0.1071,0.1103,0.1151,0.1198,0.129,0.1429,0.1678,0.189,0.2089,0.2495,0.2848,0.2932,0.2855,0.2598,0.2544,0.2478,0.2654,0.2644,0.2635,0.2528,0.2724,0.2724,0.2101,0.2097,0.2094]},{"header":{"parameterUnit":"m.s-1","parameterCategory":2,"la1":30.2991,"la2":30.254,"lo1":-89.0895,"lo2":-89.0444,"dy":0.0017,"dx":0.0017,"nx":28,"ny":28,"refTime":"2025-07-23T21:00:00:Z","depth":"0","parameterNumber":3,"parameterNumberName":"V-component_of_CURRENTS"},"data":[0,0,0,0,0,0,0,0,0,0,0,0,0,0,0,0,0,0,0,0,0,0,0,0,0,0,0,0,0,0,0,0,0,0,0,0,0,0,0,0,0,0,0,0,0,0,0,0,0,0,0,0,0,0,0,0,0,0,-0.0064,-0.0064,0,-0.0116,-0.0117,-0.0117,-0.0145,-0.0145,-0.0145,-0.0145,-0.0209,-0.0211,-0.0212,0,0,0,0,0,0,0,0,0,0,0,0,0,-0.0008,-0.0009,-0.0064,-0.0064,-0.0065,-0.0116,-0.0117,-0.0118,-0.0145,-0.0145,-0.0145,-0.0145,-0.0208,-0.021,-0.0212,0,0,0,0,0,0,0,0,0,0,0,0,0,-0.0044,-0.0009,-0.0063,-0.0084,-0.0086,-0.0116,-0.0117,-0.0118,-0.0145,-0.0145,-0.0145,-0.0145,-0.0208,-0.021,-0.0213,-0.023,0,0,-0.0221,-0.0222,0,0,0,0,0,0,0,0,-0.0042,-0.0046,-0.008,-0.0083,-0.0085,-0.0123,-0.0121,-0.0156,-0.0145,-0.0124,-0.0145,-0.0145,-0.0181,-0.0186,-0.0197,-0.0233,-0.0235,-0.0221,-0.0222,-0.0224,-0.0224,0,0,0,0,0,0,0,-0.0039,-0.0044,-0.0085,-0.0081,-0.0084,-0.0098,-0.0103,-0.0128,-0.0153,-0.0125,-0.0127,-0.0132,-0.0182,-0.0194,-0.0198,-0.0236,-0.0221,-0.0223,-0.0225,-0.0226,-0.0284,-0.0284,0,0,0,0,0,0,-0.0031,-0.0042,-0.0084,-0.0087,-0.0062,-0.0099,-0.0104,-0.0112,-0.0152,-0.0158,-0.0132,-0.0133,-0.019,-0.0195,-0.0201,-0.0219,-0.0223,-0.0226,-0.0227,-0.0284,-0.0284,-0.0284,0,0,0,0,0,0,-0.0029,-0.0034,-0.0081,-0.0065,-0.0072,-0.0099,-0.0108,-0.0113,-0.0124,-0.0157,-0.0163,-0.0137,-0.019,-0.0197,-0.022,-0.0222,-0.0227,-0.0229,-0.0284,-0.0284,-0.0284,-0.0258,0,0,0,0,0,0,-0.0027,-0.0033,-0.0036,-0.0064,-0.0072,-0.0096,-0.0108,-0.0114,-0.0126,-0.0128,-0.0164,-0.017,-0.019,-0.0216,-0.0223,-0.0225,-0.0231,-0.0284,-0.0284,-0.0284,-0.0259,-0.0257,-0.0256,0,0,0,0,0,-0.0025,-0.0029,-0.0036,-0.0041,-0.0075,-0.0096,-0.0102,-0.0122,-0.0126,-0.0131,-0.0153,-0.0168,-0.022,-0.0218,-0.0226,-0.023,-0.0284,-0.0284,-0.0284,-0.026,-0.0258,-0.0256,0,0,0,0,0,0,-0.0007,-0.0033,-0.0041,-0.0052,-0.0071,-0.01,-0.0107,-0.0119,-0.0141,-0.0143,-0.0171,-0.0179,-0.02,-0.0217,-0.0214,-0.0246,-0.0254,-0.0255,-0.0233,-0.0231,-0.0229,-0.0216,-0.0234,0,0,0,0,0,-0.0004,-0.0013,-0.0038,-0.0047,-0.0055,-0.008,-0.0091,-0.0104,-0.0126,-0.0136,-0.016,-0.0184,-0.0207,-0.022,-0.0243,-0.0262,-0.025,-0.0268,-0.0267,-0.0265,-0.0259,-0.025,-0.0246,-0.0284,-0.0284,-0.0284,0,0,-0.0,-0.0014,-0.002,-0.0044,-0.006,-0.0071,-0.0087,-0.0101,-0.0111,-0.014,-0.0159,-0.0181,-0.021,-0.0231,-0.0241,-0.0245,-0.0243,-0.0265,-0.0264,-0.0258,-0.0249,-0.0245,-0.0242,-0.0284,-0.0284,-0.0284,0,0,0.0006,-0.0009,-0.0013,-0.0028,-0.0048,-0.0064,-0.0066,-0.0093,-0.0104,-0.0125,-0.0146,-0.0166,-0.0203,-0.0223,-0.0238,-0.0241,-0.0235,-0.0249,-0.0231,-0.0222,-0.0219,-0.0216,-0.017,-0.0163,-0.0248,-0.0248,-0.0248,0,0.0014,0.0002,-0.0018,-0.0025,-0.0033,-0.0058,-0.0062,-0.008,-0.0111,-0.011,-0.0127,-0.0164,-0.0199,-0.0212,-0.0222,-0.0238,-0.0216,-0.0236,-0.0219,-0.0216,-0.0213,-0.0167,-0.016,-0.0247,-0.0247,-0.0247,-0.0247,0,0.0014,0.0006,0.0002,-0.0014,-0.0026,-0.0034,-0.0057,-0.0064,-0.0079,-0.0091,-0.0103,-0.0145,-0.0156,-0.0181,-0.021,-0.0208,-0.0192,-0.0217,-0.022,-0.0207,-0.016,-0.0153,-0.0245,-0.0245,-0.0246,-0.0246,0,0,0.0034,0.0009,0.0008,0.0012,-0.0019,-0.002,-0.0034,-0.0042,-0.0013,-0.0063,-0.0026,-0.0107,-0.0108,-0.0126,-0.0156,-0.017,-0.0142,-0.0187,-0.0187,-0.0134,-0.0085,-0.0094,-0.0086,-0.016,-0.016,-0.0159,-0.005,0,0.0044,0.0039,0.002,0.0024,0.0023,0.0004,0.0011,0.0003,0.0003,0.0036,-0.0013,0.0009,-0.0091,-0.0068,-0.0109,-0.0115,-0.0125,-0.0166,-0.0112,-0.011,-0.0114,-0.008,-0.0138,-0.0049,-0.0043,-0.0042,-0.0041,0,0.0055,0.0051,0.0053,0.0067,0.0069,0.0073,0.0106,0.0113,0.0136,0.0149,0.0141,0.0132,0.0112,0.0038,-0.0,-0.0016,-0.0055,-0.0081,-0.0077,-0.0091,-0.0106,-0.0067,-0.0036,-0.0199,-0.003,-0.0031,-0.0032,0,0.0089,0.0082,0.009,0.0086,0.0092,0.0107,0.0124,0.0149,0.0205,0.0248,0.0322,0.0266,0.0309,0.0218,0.0138,0.0088,0.0121,0.0055,0.0008,0.001,-0.0033,-0.0037,-0.015,0.0024,0.0023,0.0023,0.0023,0,0.0112,0.0123,0.0113,0.012,0.0168,0.016,0.0244,0.0257,0.0343,0.0453,0.04,0.0491,0.0356,0.0352,0.0224,0.016,0.0191,0.003,0.0034,-0.0023,-0.0028,-0.0168,-0.0262,0.0027,0.0026,0.0026,0.0025,0,0.015,0.0135,0.0155,0.0167,0.0184,0.0225,0.0331,0.0419,0.048,0.0636,0.0673,0.0702,0.0693,0.056,0.0469,0.032,0.0137,0.0194,0.0154,0.0148,-0.0085,-0.0174,-0.0245,-0.0324,0.0165,0.0166,0.0166,0,0.017,0.0177,0.0198,0.0235,0.0245,0.0318,0.0402,0.0477,0.0594,0.0771,0.0872,0.0919,0.0963,0.0831,0.0585,0.0402,0.0195,0.0208,0.0065,-0.0091,-0.0188,-0.0252,-0.0319,0.0039,0.0039,0.0038,0.0038,0,0.0213,0.0213,0.0232,0.0308,0.0383,0.0489,0.0612,0.0724,0.0861,0.1001,0.1185,0.1239,0.1121,0.0917,0.065,0.0471,0.0063,0.019,0.0027,-0.0296,-0.037,-0.0446,-0.001,0.0032,0.0033,0.0033,0.0033,0.0034,0.0253,0.0281,0.0319,0.0399,0.0495,0.0657,0.0786,0.093,0.1128,0.1349,0.1386,0.1485,0.1166,0.0796,0.0549,0.0045,0.0063,-0.0156,-0.0241,-0.0281,-0.0412,0.003,0.0064,0.0065,0.0066,0.0066,0.0067,0,0.0321,0.0355,0.0424,0.0542,0.0688,0.0723,0.0941,0.1089,0.1321,0.1471,0.161,0.1503,0.1073,0.0634,-0.0002,-0.0332,-0.0484,-0.0534,-0.0676,-0.0718,-0.0325,-0.0391,-0.0453,-0.0452,-0.0452,-0.0452,-0.0452,-0.0452,0.0363,0.0441,0.0478,0.07,0.0807,0.1041,0.1177,0.1353,0.1488,0.1677,0.1726,0.1752,0.1438,0.0228,-0.0569,-0.0762,-0.1008,-0.1055,-0.1132,-0.0923,-0.0896,-0.087,-0.0956,-0.1136,-0.1136,-0.1525,-0.1529,-0.1532]}],[{"header":{"parameterUnit":"m.s-1","parameterCategory":2,"la1":30.2991,"la2":30.254,"lo1":-89.0895,"lo2":-89.0444,"dy":0.0017,"dx":0.0017,"nx":28,"ny":28,"refTime":"2025-07-23T21:00:00:Z","depth":"2","parameterNumber":2,"parameterNumberName":"U-component_of_CURRENTS"},"data":[0,0,0,0,0,0,0,0,0,0,0,0,0,0,0,0,0,0,0,0,0,0,0,0,0,0,0,0,0,0,0,0,0,0,0,0,0,0,0,0,0,0,0,0,0,0,0,0,0,0,0,0,0,0,0,0,0,0,0.1107,0.1107,0,0.1124,0.1124,0.1124,0.1131,0.1132,0.1132,0.1132,0.114,0.114,0.114,0,0,0,0,0,0,0,0,0,0,0,0,0,0.1065,0.1066,0.1107,0.1107,0.1108,0.1124,0.1124,0.1124,0.1131,0.1132,0.1132,0.1132,0.114,0.114,0.114,0,0,0,0,0,0,0,0,0,0,0,0,0,0.1081,0.1066,0.1107,0.1115,0.1116,0.1124,0.1124,0.1124,0.1131,0.1132,0.1132,0.1132,0.114,0.114,0.114,0.1137,0,0,0.1141,0.1141,0,0,0,0,0,0,0,0,0.108,0.1082,0.1113,0.1114,0.1115,0.1127,0.1112,0.1128,0.1131,0.1124,0.1132,0.1132,0.1136,0.1137,0.1137,0.1137,0.1137,0.1141,0.1141,0.1141,0.1141,0,0,0,0,0,0,0,0.1079,0.1082,0.1112,0.1114,0.1115,0.1112,0.1114,0.1115,0.1127,0.1124,0.1125,0.113,0.1136,0.1137,0.1137,0.1138,0.1141,0.1141,0.1141,0.1141,0.1147,0.1147,0,0,0,0,0,0,0.1081,0.1081,0.1111,0.1113,0.11,0.1113,0.1115,0.1122,0.1127,0.1129,0.113,0.113,0.1136,0.1137,0.1137,0.1143,0.1141,0.1141,0.1141,0.1147,0.1147,0.1147,0,0,0,0,0,0,0.108,0.1084,0.1111,0.1098,0.1102,0.1113,0.112,0.1122,0.1126,0.1132,0.1133,0.1133,0.1136,0.1137,0.114,0.1143,0.1141,0.1141,0.1147,0.1147,0.1147,0.1148,0,0,0,0,0,0,0.1079,0.1084,0.1088,0.1098,0.1103,0.1116,0.112,0.1122,0.1129,0.113,0.1134,0.1135,0.1137,0.114,0.114,0.1143,0.1141,0.1147,0.1147,0.1147,0.1148,0.1148,0.1149,0,0,0,0,0,0.1078,0.1083,0.1088,0.1092,0.1109,0.1117,0.1118,0.1126,0.1129,0.113,0.1133,0.1135,0.1141,0.114,0.114,0.1144,0.1147,0.1147,0.1147,0.1148,0.1148,0.1149,0,0,0,0,0,0,0.1068,0.1085,0.1091,0.1102,0.111,0.1119,0.1122,0.1127,0.113,0.1131,0.1135,0.1136,0.1139,0.1141,0.1139,0.1146,0.1145,0.1145,0.1145,0.1146,0.1146,0.1165,0.1141,0,0,0,0,0,0.1068,0.1077,0.1091,0.1099,0.1104,0.1113,0.1117,0.1122,0.1128,0.113,0.1132,0.1136,0.1139,0.1142,0.1143,0.1147,0.1205,0.1149,0.115,0.115,0.1166,0.1233,0.1242,0.1148,0.1148,0.1148,0,0,0.1066,0.1078,0.1082,0.1098,0.1104,0.1109,0.1115,0.1123,0.1127,0.113,0.1133,0.1135,0.1139,0.1143,0.1145,0.1146,0.1217,0.115,0.115,0.1166,0.1235,0.1244,0.1253,0.1148,0.1148,0.1148,0,0,0.1064,0.1077,0.1082,0.1089,0.1102,0.1108,0.1111,0.112,0.1125,0.1127,0.1132,0.114,0.1137,0.1148,0.1152,0.1156,0.1213,0.1151,0.1171,0.1236,0.1245,0.1253,0.1387,0.1408,0.1154,0.1154,0.1154,0,0.106,0.1074,0.1084,0.109,0.11,0.1108,0.1116,0.1118,0.1125,0.1142,0.1127,0.1152,0.1143,0.1173,0.1165,0.1158,0.123,0.1168,0.1239,0.1248,0.1256,0.1391,0.1414,0.1154,0.1154,0.1154,0.1154,0,0.1063,0.1074,0.1077,0.109,0.1098,0.1107,0.1116,0.1125,0.113,0.1142,0.1168,0.1163,0.1193,0.1176,0.1166,0.122,0.1267,0.123,0.1242,0.1266,0.1407,0.1431,0.1154,0.1154,0.1154,0.1154,0,0,0.1055,0.1076,0.1077,0.1091,0.1103,0.1115,0.1124,0.1151,0.1189,0.1178,0.1239,0.121,0.1232,0.1239,0.1236,0.127,0.1388,0.1274,0.1278,0.1417,0.1601,0.1561,0.1584,0.1365,0.1368,0.137,0.1693,0,0.1056,0.1073,0.1082,0.1101,0.1115,0.1131,0.1151,0.1176,0.1203,0.1261,0.1268,0.1318,0.1251,0.1289,0.1306,0.1376,0.1443,0.1309,0.1548,0.1557,0.1524,0.1604,0.1434,0.1699,0.1716,0.172,0.1723,0,0.1057,0.1073,0.1091,0.1133,0.1143,0.1154,0.1217,0.1238,0.131,0.1342,0.1388,0.142,0.149,0.142,0.1565,0.1489,0.1549,0.1588,0.16,0.1576,0.1557,0.1666,0.1741,0.1763,0.1759,0.1756,0.1754,0,0.1058,0.1083,0.1104,0.1112,0.1152,0.1174,0.1203,0.1265,0.1313,0.1421,0.1495,0.1564,0.1645,0.17,0.1758,0.1693,0.193,0.1861,0.1896,0.1898,0.1806,0.1793,0.1971,0.1971,0.197,0.1969,0.1968,0,0.1062,0.1079,0.1108,0.1119,0.1159,0.1191,0.1256,0.1299,0.1401,0.1492,0.1548,0.1654,0.1712,0.1835,0.1858,0.1972,0.2028,0.1942,0.1972,0.1805,0.1788,0.1858,0.184,0.1981,0.1979,0.1976,0.1974,0,0.1055,0.1074,0.1098,0.1141,0.1157,0.1187,0.1271,0.1336,0.1435,0.157,0.1624,0.178,0.1955,0.2023,0.217,0.2128,0.2222,0.224,0.2072,0.2072,0.214,0.2119,0.236,0.2361,0.2362,0.2363,0.2363,0,0.1052,0.1064,0.1101,0.1119,0.1135,0.1189,0.1238,0.1333,0.1415,0.1643,0.1723,0.1943,0.2074,0.2297,0.2284,0.2386,0.235,0.2262,0.2061,0.2172,0.2179,0.2156,0.2134,0.199,0.1987,0.1985,0.1984,0,0.1043,0.1054,0.1074,0.1112,0.1152,0.1204,0.1287,0.1354,0.1504,0.1633,0.1842,0.1978,0.2194,0.2219,0.2318,0.2315,0.222,0.2223,0.2425,0.1874,0.1836,0.1837,0.1826,0.1966,0.1968,0.1969,0.197,0.1971,0.1028,0.104,0.1069,0.1106,0.115,0.1215,0.1267,0.1374,0.1502,0.1683,0.1828,0.1963,0.2049,0.2112,0.2108,0.2086,0.2205,0.2085,0.2087,0.2091,0.1947,0.1907,0.2031,0.2033,0.2034,0.2036,0.2037,0,0.1011,0.1035,0.1068,0.1117,0.1168,0.1194,0.1301,0.1354,0.1485,0.1629,0.1763,0.1685,0.1756,0.1848,0.18,0.1818,0.1738,0.1744,0.1623,0.1645,0.1663,0.1489,0.1457,0.1455,0.1452,0.145,0,0,0.1004,0.103,0.1055,0.1122,0.1162,0.1224,0.1277,0.1355,0.1441,0.1485,0.1523,0.1654,0.1784,0.1567,0.1579,0.1525,0.1554,0.1463,0.1937,0.1816,0.1831,0.1882,0.1643,0,0,0,0,0]},{"header":{"parameterUnit":"m.s-1","parameterCategory":2,"la1":30.2991,"la2":30.254,"lo1":-89.0895,"lo2":-89.0444,"dy":0.0017,"dx":0.0017,"nx":28,"ny":28,"refTime":"2025-07-23T21:00:00:Z","depth":"2","parameterNumber":3,"parameterNumberName":"V-component_of_CURRENTS"},"data":[0,0,0,0,0,0,0,0,0,0,0,0,0,0,0,0,0,0,0,0,0,0,0,0,0,0,0,0,0,0,0,0,0,0,0,0,0,0,0,0,0,0,0,0,0,0,0,0,0,0,0,0,0,0,0,0,0,0,-0.0145,-0.0146,0,-0.0198,-0.0199,-0.02,-0.0227,-0.0227,-0.0227,-0.0227,-0.0293,-0.0295,-0.0297,0,0,0,0,0,0,0,0,0,0,0,0,0,-0.0094,-0.0094,-0.0145,-0.0146,-0.0147,-0.0198,-0.0199,-0.02,-0.0227,-0.0227,-0.0227,-0.0227,-0.0293,-0.0295,-0.0297,0,0,0,0,0,0,0,0,0,0,0,0,0,-0.0129,-0.0095,-0.0145,-0.0166,-0.0168,-0.0198,-0.0199,-0.02,-0.0227,-0.0227,-0.0227,-0.0227,-0.0292,-0.0295,-0.0297,-0.0315,0,0,-0.0306,-0.0307,0,0,0,0,0,0,0,0,-0.0127,-0.0131,-0.0162,-0.0164,-0.0167,-0.0205,-0.0205,-0.0239,-0.0228,-0.0206,-0.0227,-0.0227,-0.0265,-0.0269,-0.0281,-0.0318,-0.0321,-0.0306,-0.0307,-0.0309,-0.0309,0,0,0,0,0,0,0,-0.0125,-0.0129,-0.0167,-0.0163,-0.0166,-0.0181,-0.0186,-0.0212,-0.0236,-0.0208,-0.021,-0.0214,-0.0266,-0.0278,-0.0283,-0.0322,-0.0306,-0.0308,-0.031,-0.0311,-0.0371,-0.0371,0,0,0,0,0,0,-0.0115,-0.0127,-0.0166,-0.0169,-0.0145,-0.0182,-0.0187,-0.0194,-0.0235,-0.0241,-0.0214,-0.0215,-0.0274,-0.0279,-0.0285,-0.0302,-0.0309,-0.0311,-0.0313,-0.0371,-0.0371,-0.0371,0,0,0,0,0,0,-0.0114,-0.0118,-0.0164,-0.0148,-0.0155,-0.0183,-0.019,-0.0195,-0.0206,-0.024,-0.0246,-0.0219,-0.0274,-0.0281,-0.0305,-0.0305,-0.0312,-0.0315,-0.0371,-0.0371,-0.0371,-0.0341,0,0,0,0,0,0,-0.0112,-0.0117,-0.0119,-0.0147,-0.0155,-0.0178,-0.019,-0.0196,-0.0208,-0.021,-0.0246,-0.0252,-0.0274,-0.0301,-0.0307,-0.0309,-0.0317,-0.0371,-0.0371,-0.0371,-0.0342,-0.034,-0.0339,0,0,0,0,0,-0.011,-0.0113,-0.0119,-0.0124,-0.0157,-0.0178,-0.0184,-0.0204,-0.0208,-0.0213,-0.0236,-0.0251,-0.0305,-0.0303,-0.0311,-0.0313,-0.0371,-0.0371,-0.0371,-0.0343,-0.0341,-0.0339,0,0,0,0,0,0,-0.0092,-0.0117,-0.0124,-0.0134,-0.0152,-0.0182,-0.0189,-0.0201,-0.0223,-0.0224,-0.0254,-0.0262,-0.0283,-0.0302,-0.0298,-0.033,-0.034,-0.0341,-0.0316,-0.0314,-0.0312,-0.0298,-0.0319,0,0,0,0,0,-0.0088,-0.0096,-0.0121,-0.0129,-0.0136,-0.0161,-0.0172,-0.0185,-0.0208,-0.0217,-0.0242,-0.0267,-0.029,-0.0304,-0.0328,-0.0347,-0.034,-0.0353,-0.0351,-0.0349,-0.0343,-0.0339,-0.0336,-0.0371,-0.0371,-0.0371,0,0,-0.0084,-0.0097,-0.0103,-0.0125,-0.0141,-0.0153,-0.0168,-0.0182,-0.0191,-0.0221,-0.024,-0.0263,-0.0294,-0.0314,-0.0325,-0.033,-0.0331,-0.0349,-0.0347,-0.0342,-0.0339,-0.0335,-0.0332,-0.0371,-0.0371,-0.0371,0,0,-0.0077,-0.009,-0.0094,-0.0108,-0.0128,-0.0144,-0.0145,-0.0173,-0.0184,-0.0204,-0.0226,-0.0246,-0.0285,-0.0304,-0.032,-0.0322,-0.0322,-0.033,-0.0311,-0.0307,-0.0304,-0.0301,-0.0265,-0.0259,-0.0329,-0.0329,-0.0329,0,-0.0069,-0.0079,-0.0099,-0.0106,-0.0114,-0.0137,-0.0142,-0.0159,-0.019,-0.019,-0.0206,-0.0246,-0.028,-0.0294,-0.0301,-0.0318,-0.0303,-0.0317,-0.0303,-0.0301,-0.0298,-0.0262,-0.0256,-0.0327,-0.0328,-0.0328,-0.0328,0,-0.0068,-0.0075,-0.0079,-0.0095,-0.0106,-0.0113,-0.0136,-0.0143,-0.0157,-0.017,-0.0184,-0.0224,-0.0238,-0.0262,-0.0288,-0.0288,-0.0276,-0.03,-0.0306,-0.0292,-0.0256,-0.025,-0.0325,-0.0326,-0.0326,-0.0327,0,0,-0.0048,-0.0072,-0.0073,-0.007,-0.0098,-0.0101,-0.0114,-0.0122,-0.0098,-0.0145,-0.0114,-0.0188,-0.0191,-0.0209,-0.0238,-0.0252,-0.0228,-0.0269,-0.0269,-0.0226,-0.0188,-0.0328,-0.0335,-0.0247,-0.0247,-0.0246,-0.016,0,-0.0038,-0.0043,-0.0061,-0.0058,-0.006,-0.0078,-0.0074,-0.0083,-0.0084,-0.0057,-0.0102,-0.0084,-0.0175,-0.0153,-0.0193,-0.0204,-0.0215,-0.0247,-0.0214,-0.0212,-0.0333,-0.0335,-0.0311,-0.0248,-0.0155,-0.0154,-0.0153,0,-0.0028,-0.0032,-0.003,-0.0021,-0.0019,-0.0017,0.0011,0.0015,0.0034,0.0044,0.0035,0.0026,0.0007,-0.0059,-0.0103,-0.0115,-0.0154,-0.018,-0.0178,-0.0318,-0.0344,-0.0252,-0.0241,-0.0144,-0.0144,-0.0145,-0.0146,0,0.0004,-0.0003,0.0004,-0.0,0.0002,0.0016,0.003,0.0048,0.0099,0.0135,0.0203,0.0146,0.0183,0.0096,-0.0006,-0.0025,-0.0047,-0.0069,-0.0231,-0.0238,-0.0219,-0.0229,-0.0102,-0.0102,-0.0102,-0.0103,-0.0103,0,0.0026,0.0035,0.0025,0.0031,0.0072,0.0064,0.0137,0.0147,0.0225,0.031,0.0275,0.0337,0.0224,0.0186,0.0062,-0.0082,0.0004,-0.0227,-0.0239,-0.021,-0.022,-0.014,-0.0146,-0.0099,-0.01,-0.0101,-0.0101,0,0.0061,0.0048,0.0065,0.0074,0.0088,0.0124,0.022,0.0298,0.0353,0.0478,0.0513,0.0526,0.044,0.0291,0.018,0.003,-0.0102,-0.0177,-0.0136,-0.0152,-0.0294,-0.0298,-0.0306,-0.031,-0.0314,-0.0318,-0.032,0,0.008,0.0087,0.0104,0.0136,0.0145,0.0211,0.0285,0.0353,0.0456,0.0578,0.0661,0.0629,0.0561,0.0329,0.007,-0.017,-0.0182,-0.0286,-0.0366,-0.031,-0.032,-0.0319,-0.0319,-0.0282,-0.0284,-0.0285,-0.0287,0,0.0118,0.012,0.0135,0.0203,0.027,0.0359,0.0467,0.0553,0.0657,0.0733,0.08,0.075,0.0529,0.0263,-0.0076,-0.0236,-0.0262,-0.0338,-0.0244,-0.0291,-0.0297,-0.0305,-0.0302,-0.0303,-0.0301,-0.03,-0.0299,-0.0298,0.0154,0.0179,0.0211,0.028,0.0369,0.0489,0.057,0.0668,0.0774,0.0858,0.0814,0.0732,0.0511,0.0017,-0.0213,-0.0426,-0.0441,-0.0494,-0.0482,-0.047,-0.054,-0.0561,-0.0622,-0.0623,-0.0623,-0.0623,-0.0623,0,0.0206,0.0238,0.0299,0.0398,0.052,0.0565,0.0696,0.0746,0.082,0.0856,0.081,0.0525,0.0245,0.0027,-0.0315,-0.0553,-0.0504,-0.0602,-0.0463,-0.0449,-0.0437,-0.0499,-0.0573,-0.0572,-0.0572,-0.0572,0,0,0.0239,0.0301,0.033,0.0512,0.0616,0.0797,0.0861,0.0803,0.0814,0.0783,0.0739,0.0581,0.0323,0.0079,-0.0213,-0.0365,-0.0343,-0.0401,-0.0428,-0.0217,-0.02,-0.0377,-0.0462,0,0,0,0,0]}],[{"header":{"parameterUnit":"m.s-1","parameterCategory":2,"la1":30.2991,"la2":30.254,"lo1":-89.0895,"lo2":-89.0444,"dy":0.0017,"dx":0.0017,"nx":28,"ny":28,"refTime":"2025-07-23T21:00:00:Z","depth":"4","parameterNumber":2,"parameterNumberName":"U-component_of_CURRENTS"},"data":[0,0,0,0,0,0,0,0,0,0,0,0,0,0,0,0,0,0,0,0,0,0,0,0,0,0,0,0,0,0,0,0,0,0,0,0,0,0,0,0,0,0,0,0,0,0,0,0,0,0,0,0,0,0,0,0,0,0,0.0748,0.0749,0,0.0797,0.0798,0.0798,0.0839,0.0839,0.084,0.084,0.0897,0.0898,0.0899,0,0,0,0,0,0,0,0,0,0,0,0,0,0.0695,0.0696,0.0748,0.0749,0.075,0.0797,0.0798,0.0798,0.0838,0.0839,0.084,0.0841,0.0897,0.0898,0.0899,0,0,0,0,0,0,0,0,0,0,0,0,0,0.0727,0.0696,0.0748,0.0777,0.078,0.0797,0.0798,0.0798,0.0838,0.0839,0.084,0.0841,0.0896,0.0898,0.0899,0.0889,0,0,0.0903,0.0904,0,0,0,0,0,0,0,0,0.0725,0.0728,0.0772,0.0775,0.0779,0.0815,0.08,0.083,0.0838,0.0814,0.084,0.0842,0.0871,0.0874,0.0878,0.0892,0.0894,0.0904,0.0904,0.0905,0.0905,0,0,0,0,0,0,0,0.0722,0.0726,0.0765,0.0773,0.0777,0.079,0.0795,0.0806,0.0835,0.0816,0.082,0.0828,0.0873,0.0877,0.088,0.0895,0.0904,0.0905,0.0906,0.0906,0.098,0.0981,0,0,0,0,0,0,0.0719,0.0724,0.0764,0.0767,0.0756,0.079,0.0796,0.08,0.0835,0.0842,0.0827,0.083,0.0874,0.0879,0.0882,0.0952,0.0905,0.0906,0.0907,0.0979,0.098,0.0981,0,0,0,0,0,0,0.0718,0.0722,0.0762,0.0749,0.0755,0.079,0.0795,0.0801,0.0829,0.0844,0.0851,0.0853,0.0875,0.088,0.092,0.0951,0.0907,0.0908,0.0977,0.0979,0.0981,0.104,0,0,0,0,0,0,0.0716,0.0721,0.0731,0.0748,0.0756,0.0787,0.0794,0.0801,0.0832,0.0837,0.0867,0.0872,0.0876,0.0918,0.0921,0.0952,0.0909,0.0976,0.0978,0.098,0.1036,0.1043,0.1049,0,0,0,0,0,0.0714,0.0718,0.0731,0.0737,0.0766,0.0788,0.0793,0.082,0.0833,0.0848,0.0876,0.0872,0.0934,0.092,0.0924,0.0956,0.0975,0.0978,0.098,0.1033,0.1042,0.1049,0,0,0,0,0,0,0.0699,0.0724,0.0738,0.0751,0.0777,0.0796,0.0814,0.0831,0.0863,0.0876,0.0887,0.0894,0.0935,0.0937,0.0921,0.0982,0.0953,0.0957,0.0993,0.1001,0.1007,0.1002,0.091,0,0,0,0,0,0.0701,0.0717,0.074,0.0756,0.0768,0.0795,0.0811,0.0833,0.0859,0.0875,0.0898,0.0922,0.0943,0.0967,0.0977,0.1016,0.1007,0.1038,0.1044,0.105,0.1048,0.1088,0.1098,0.099,0.099,0.099,0,0,0.0702,0.0719,0.0729,0.0756,0.0778,0.0799,0.0808,0.0841,0.087,0.0875,0.0926,0.0941,0.0955,0.0996,0.1016,0.1009,0.107,0.1053,0.1058,0.1053,0.1092,0.1102,0.1112,0.0991,0.0991,0.0991,0,0,0.0707,0.0726,0.074,0.0764,0.0803,0.0818,0.0832,0.0866,0.0896,0.094,0.0952,0.0991,0.1023,0.1047,0.106,0.1107,0.1094,0.1113,0.1156,0.1195,0.1205,0.1213,0.1188,0.1193,0.1128,0.1129,0.1129,0,0.0709,0.0731,0.0749,0.0771,0.0798,0.0827,0.0854,0.0881,0.0931,0.0962,0.0965,0.103,0.1046,0.11,0.1121,0.1123,0.1123,0.1128,0.1205,0.1213,0.122,0.1192,0.1198,0.1132,0.1131,0.1131,0.1131,0,0.0723,0.075,0.0762,0.08,0.0826,0.0859,0.0896,0.0934,0.0971,0.1004,0.1068,0.1093,0.1133,0.1149,0.1152,0.1217,0.1189,0.12,0.1186,0.1235,0.1202,0.1206,0.1136,0.1135,0.1134,0.1133,0,0,0.0701,0.0761,0.0767,0.0796,0.0851,0.0871,0.0925,0.0981,0.1016,0.1076,0.1124,0.1181,0.1201,0.1215,0.1231,0.1274,0.1319,0.1268,0.1269,0.1242,0.1366,0.1328,0.1328,0.1356,0.1358,0.1359,0.1312,0,0.0712,0.0757,0.0786,0.0837,0.0864,0.0913,0.0959,0.1018,0.1058,0.1108,0.1165,0.1216,0.1225,0.1254,0.1297,0.1313,0.1338,0.1327,0.1323,0.1321,0.1283,0.1336,0.1365,0.1315,0.1316,0.1317,0.1317,0,0.0713,0.0748,0.0801,0.0867,0.0883,0.0923,0.0995,0.1042,0.1118,0.1154,0.1216,0.1245,0.1317,0.1316,0.1373,0.137,0.1371,0.1378,0.1377,0.1325,0.1293,0.1263,0.1325,0.1325,0.1324,0.1323,0.1323,0,0.0688,0.0753,0.0801,0.0827,0.0904,0.0949,0.0998,0.107,0.1115,0.1196,0.1224,0.1297,0.1343,0.1376,0.1398,0.1396,0.1437,0.1432,0.1385,0.1379,0.1398,0.139,0.1467,0.1467,0.1467,0.1467,0.1468,0,0.0682,0.0717,0.0801,0.0828,0.089,0.0952,0.1017,0.107,0.1145,0.1193,0.1257,0.1296,0.1372,0.1401,0.1403,0.1406,0.1445,0.1392,0.1383,0.1418,0.1413,0.1399,0.1391,0.1466,0.1466,0.1466,0.1467,0,0.0647,0.0701,0.0758,0.0851,0.0883,0.0935,0.1034,0.1073,0.1149,0.1205,0.1243,0.1321,0.1377,0.1407,0.1451,0.1414,0.1419,0.1405,0.1405,0.1395,0.1316,0.1313,0.1335,0.1334,0.1333,0.1332,0.1331,0,0.0634,0.0662,0.0766,0.0804,0.0854,0.0935,0.0989,0.1079,0.111,0.1212,0.123,0.1319,0.1362,0.1359,0.1416,0.1407,0.1407,0.1363,0.1374,0.1323,0.1312,0.131,0.1308,0.1329,0.1329,0.1329,0.1328,0,0.0607,0.0654,0.0707,0.0788,0.0853,0.0908,0.0986,0.1002,0.1099,0.1159,0.12,0.124,0.1294,0.1336,0.1345,0.1341,0.1371,0.1351,0.1353,0.1363,0.1316,0.1305,0.1305,0.1324,0.1325,0.1325,0.1325,0,0.0595,0.0624,0.0701,0.077,0.0838,0.0876,0.0918,0.0965,0.1014,0.1106,0.1123,0.1211,0.1284,0.1303,0.1313,0.1314,0.1303,0.1245,0.1252,0.1257,0.1264,0.1195,0.1164,0,0,0,0,0,0.0577,0.0609,0.0671,0.074,0.0802,0.084,0.0912,0.0949,0.1022,0.1025,0.1069,0.1119,0.1171,0.1223,0.1213,0.1299,0.1311,0.1282,0.1248,0.1303,0.1307,0.1329,0,0,0,0,0,0,0.0565,0.0621,0.066,0.0705,0.0735,0.0795,0.0839,0.0887,0.0887,0.096,0.0997,0.1051,0.1121,0.1163,0.119,0.1205,0.1162,0.1336,0.1334,0.13,0.1304,0.1308,0.1331,0,0,0,0,0]},{"header":{"parameterUnit":"m.s-1","parameterCategory":2,"la1":30.2991,"la2":30.254,"lo1":-89.0895,"lo2":-89.0444,"dy":0.0017,"dx":0.0017,"nx":28,"ny":28,"refTime":"2025-07-23T21:00:00:Z","depth":"4","parameterNumber":3,"parameterNumberName":"V-component_of_CURRENTS"},"data":[0,0,0,0,0,0,0,0,0,0,0,0,0,0,0,0,0,0,0,0,0,0,0,0,0,0,0,0,0,0,0,0,0,0,0,0,0,0,0,0,0,0,0,0,0,0,0,0,0,0,0,0,0,0,0,0,0,0,-0.0103,-0.0104,0,-0.0135,-0.0135,-0.0136,-0.0175,-0.0176,-0.0177,-0.0177,-0.0254,-0.0255,-0.0257,0,0,0,0,0,0,0,0,0,0,0,0,0,-0.0122,-0.0122,-0.0103,-0.0104,-0.0104,-0.0135,-0.0135,-0.0136,-0.0175,-0.0176,-0.0177,-0.0177,-0.0253,-0.0255,-0.0257,0,0,0,0,0,0,0,0,0,0,0,0,0,-0.013,-0.0121,-0.0103,-0.0127,-0.0129,-0.0135,-0.0135,-0.0136,-0.0175,-0.0176,-0.0177,-0.0178,-0.0253,-0.0255,-0.0257,-0.0253,0,0,-0.0264,-0.0265,0,0,0,0,0,0,0,0,-0.013,-0.013,-0.0123,-0.0125,-0.0128,-0.0152,-0.017,-0.0177,-0.0175,-0.0159,-0.0177,-0.0178,-0.0223,-0.0228,-0.0232,-0.0257,-0.026,-0.0264,-0.0266,-0.0267,-0.0267,0,0,0,0,0,0,0,-0.0129,-0.0129,-0.0116,-0.0124,-0.0126,-0.0151,-0.0153,-0.0172,-0.0187,-0.016,-0.0163,-0.0165,-0.0225,-0.0229,-0.0234,-0.0261,-0.0264,-0.0266,-0.0268,-0.0269,-0.0312,-0.0312,0,0,0,0,0,0,-0.012,-0.0128,-0.0115,-0.0117,-0.013,-0.015,-0.0152,-0.0144,-0.0186,-0.0192,-0.0164,-0.0167,-0.0225,-0.0231,-0.0237,-0.0264,-0.0267,-0.0269,-0.027,-0.0312,-0.0312,-0.0312,0,0,0,0,0,0,-0.012,-0.0119,-0.0114,-0.0124,-0.0125,-0.0148,-0.0139,-0.0144,-0.0158,-0.0188,-0.0196,-0.0175,-0.0226,-0.0234,-0.0262,-0.0266,-0.027,-0.0272,-0.0312,-0.0312,-0.0312,-0.03,0,0,0,0,0,0,-0.0121,-0.0118,-0.0114,-0.0122,-0.0124,-0.0121,-0.0138,-0.0144,-0.0157,-0.0161,-0.0199,-0.0207,-0.0227,-0.0258,-0.0264,-0.027,-0.0274,-0.0313,-0.0312,-0.0312,-0.0301,-0.0299,-0.0298,0,0,0,0,0,-0.0121,-0.0105,-0.0114,-0.0113,-0.0116,-0.012,-0.0123,-0.0144,-0.0157,-0.0161,-0.0189,-0.0206,-0.026,-0.026,-0.0267,-0.0273,-0.0313,-0.0312,-0.0312,-0.0301,-0.03,-0.0298,0,0,0,0,0,0,-0.011,-0.0107,-0.0117,-0.0101,-0.0114,-0.0127,-0.0131,-0.0145,-0.0169,-0.0178,-0.0207,-0.0216,-0.0237,-0.0255,-0.0255,-0.0283,-0.0288,-0.0288,-0.0277,-0.0276,-0.0275,-0.0271,-0.0275,0,0,0,0,0,-0.0105,-0.0095,-0.0102,-0.0094,-0.0097,-0.0116,-0.0123,-0.0138,-0.0156,-0.0168,-0.0195,-0.0221,-0.0237,-0.0258,-0.0272,-0.0295,-0.0322,-0.0301,-0.03,-0.0299,-0.0299,-0.0328,-0.033,-0.031,-0.031,-0.031,0,0,-0.0099,-0.0097,-0.0092,-0.0092,-0.0103,-0.0105,-0.0123,-0.0132,-0.0137,-0.0173,-0.0193,-0.0215,-0.0239,-0.0259,-0.0271,-0.0281,-0.0323,-0.0298,-0.0297,-0.0298,-0.0328,-0.033,-0.0331,-0.031,-0.031,-0.031,0,0,-0.0086,-0.0081,-0.0073,-0.008,-0.0094,-0.0101,-0.0103,-0.0122,-0.0135,-0.0157,-0.0177,-0.0202,-0.0236,-0.0253,-0.0265,-0.0265,-0.0307,-0.0274,-0.0279,-0.0307,-0.0309,-0.0311,-0.0371,-0.0379,-0.0284,-0.0284,-0.0284,0,-0.0083,-0.0073,-0.0074,-0.0073,-0.0078,-0.0097,-0.0098,-0.0106,-0.0135,-0.015,-0.0163,-0.021,-0.0229,-0.0252,-0.0255,-0.0262,-0.0301,-0.0284,-0.0306,-0.0308,-0.0311,-0.0372,-0.038,-0.0284,-0.0284,-0.0284,-0.0284,0,-0.007,-0.0066,-0.0061,-0.0063,-0.0066,-0.007,-0.008,-0.0092,-0.0112,-0.0132,-0.0162,-0.019,-0.0222,-0.023,-0.0247,-0.0273,-0.0303,-0.0293,-0.0311,-0.0312,-0.0377,-0.0386,-0.0283,-0.0283,-0.0283,-0.0283,0,0,-0.006,-0.0053,-0.0055,-0.006,-0.0064,-0.0068,-0.0068,-0.0083,-0.0105,-0.0127,-0.0166,-0.0178,-0.0205,-0.022,-0.0243,-0.0275,-0.0329,-0.0299,-0.0301,-0.0363,-0.0427,-0.0382,-0.0388,-0.033,-0.0331,-0.0332,-0.0475,0,-0.0059,-0.0052,-0.0048,-0.0049,-0.0049,-0.0059,-0.0062,-0.0079,-0.0107,-0.015,-0.0173,-0.0217,-0.0196,-0.0236,-0.0251,-0.0319,-0.0349,-0.0293,-0.0414,-0.0418,-0.0379,-0.0394,-0.0334,-0.0482,-0.0484,-0.0485,-0.0486,0,-0.0057,-0.0051,-0.0048,-0.0052,-0.0055,-0.0057,-0.0082,-0.0089,-0.0134,-0.0165,-0.0197,-0.0235,-0.0284,-0.0271,-0.0352,-0.0325,-0.0367,-0.041,-0.0416,-0.0381,-0.0387,-0.0475,-0.0503,-0.0502,-0.0501,-0.0499,-0.0498,0,-0.0062,-0.0057,-0.0054,-0.0055,-0.0057,-0.0063,-0.0069,-0.01,-0.0122,-0.0188,-0.0233,-0.0279,-0.0328,-0.0372,-0.0431,-0.0414,-0.0536,-0.0521,-0.0516,-0.0516,-0.0521,-0.0517,-0.0565,-0.0564,-0.0564,-0.0564,-0.0563,0,-0.0062,-0.0066,-0.0059,-0.0059,-0.0069,-0.0069,-0.0097,-0.0113,-0.0161,-0.0187,-0.0241,-0.0272,-0.0355,-0.0424,-0.0467,-0.052,-0.0555,-0.0524,-0.0541,-0.0517,-0.051,-0.053,-0.0524,-0.0569,-0.0568,-0.0567,-0.0566,0,-0.0072,-0.0066,-0.0067,-0.0067,-0.0071,-0.0079,-0.0104,-0.0129,-0.0168,-0.0211,-0.0239,-0.0306,-0.0376,-0.0459,-0.0563,-0.0565,-0.0632,-0.0634,-0.0637,-0.0652,-0.0596,-0.0588,-0.0667,-0.0666,-0.0666,-0.0665,-0.0665,0,-0.0077,-0.0076,-0.0075,-0.0081,-0.0082,-0.0095,-0.0108,-0.0134,-0.0155,-0.0202,-0.0224,-0.0312,-0.0347,-0.0466,-0.0542,-0.0652,-0.0628,-0.0692,-0.0601,-0.0593,-0.0603,-0.0596,-0.0588,-0.0664,-0.0664,-0.0664,-0.0664,0,-0.009,-0.009,-0.0087,-0.0096,-0.0105,-0.0109,-0.0122,-0.013,-0.0147,-0.0195,-0.0197,-0.0254,-0.0333,-0.0419,-0.0517,-0.0575,-0.0674,-0.0686,-0.0686,-0.0602,-0.0591,-0.06,-0.0593,-0.0662,-0.0662,-0.0662,-0.0663,0,-0.0105,-0.0108,-0.0108,-0.0116,-0.0128,-0.0115,-0.0109,-0.011,-0.0123,-0.0155,-0.0146,-0.0219,-0.0279,-0.0379,-0.0457,-0.0531,-0.0524,-0.0532,-0.054,-0.0543,-0.0439,-0.0403,-0.0437,0,0,0,0,0,-0.0125,-0.0131,-0.0134,-0.0137,-0.0145,-0.0144,-0.0127,-0.0116,-0.0123,-0.0107,-0.0119,-0.0169,-0.026,-0.0315,-0.0374,-0.0456,-0.056,-0.0529,-0.0579,-0.0652,-0.0654,-0.0545,0,0,0,0,0,0,-0.0143,-0.0146,-0.014,-0.0158,-0.0164,-0.016,-0.0135,-0.0117,-0.0102,-0.0109,-0.0153,-0.0188,-0.0286,-0.0233,-0.0381,-0.0408,-0.0443,-0.0589,-0.0589,-0.0651,-0.0653,-0.0655,-0.0543,0,0,0,0,0]}]]